Weather History for Ellensburg, WA

Change the Weather History Date:

Wednesday, May 22, 2013

  Actual Average (KYKM) Record (KYKM)
Temperature  
Mean Temperature 46 °F 59 °F  
Max Temperature 53 °F 74 °F 95 °F (1958)
Min Temperature 39 °F 44 °F 27 °F (1960)
Degree Days  
Heating Degree Days 19 7  
Month to date heating degree days 208  
Since 1 July heating degree days 5890  
Cooling Degree Days 0 1  
Month to date cooling degree days 11  
Year to date cooling degree days 12  
Moisture  
Dew Point 38 °F    
Average Humidity 75    
Maximum Humidity 85    
Minimum Humidity 58    
Precipitation  
Precipitation 0.38 in 0.02 in 0.95 in (2013)
Month to date precipitation 0.39  
Year to date precipitation 3.48  
Snow  
Snow 0.00 in 0.00 in 0.00 in (2002)
Month to date snowfall 0.0  
Year to date snowfall 8.6  
Since 1 July snowfall 21.6  
Snow Depth -    
Sea Level Pressure  
Sea Level Pressure 29.84 in    
Wind  
Wind Speed 13 mph (WSW)    
Max Wind Speed 25 mph    
Max Gust Speed 32 mph    
Visibility 8 miles    
Events Rain    
T = Trace of Precipitation, MM = Missing Value Source: NWS Daily Summary

Daily Weather History Graph

Daily Weather History Graph

Search for Another Location

Airport:

Trip Planner

Search our weather history database for the weather conditions in past years. The results will help you decide how hot, cold, wet, or windy it might be!

Date:

Astronomy

May. 22, 2013 Rise Set
Actual Time 5:18 AM PDT 8:39 PM PDT
Civil Twilight 4:41 AM PDT 9:17 PM PDT
Nautical Twilight 3:52 AM PDT 10:06 PM PDT
Astronomical Twilight 2:50 AM PDT 11:09 PM PDT
Moon 5:59 PM PDT (5/22) 3:36 AM PDT (5/22)
Length of Visible Light 16h 35m
Length of Day
15h 21m
Waxing Gibbous, 92% of the Moon is Illuminated
May 22
Waxing Gibbous
May 24
Full
May 31
Last Quarter
Jun 8
New
Jun 16
First Quarter

Hourly Weather History & Observations

Time (PDT) Temp. Windchill Dew Point Humidity Pressure Visibility Wind Dir Wind Speed Gust Speed Precip Events Conditions
12:45 AM 44.6 °F 36.6 °F 33.8 °F 66% 29.77 in 10.0 mi NW 19.6 mph 24.2 mph 0.01 in Rain Light Rain
12:53 AM 45.0 °F 37.4 °F 35.1 °F 68% 29.78 in 10.0 mi NNW 18.4 mph 25.3 mph 0.01 in Rain Light Rain
1:53 AM 44.1 °F 37.1 °F 36.0 °F 73% 29.76 in 10.0 mi WNW 15.0 mph 21.9 mph 0.03 in Rain Light Rain
2:53 AM 43.0 °F 33.3 °F 35.1 °F 74% 29.76 in 10.0 mi WNW 25.3 mph 32.2 mph 0.00 in Rain Light Rain
3:53 AM 42.1 °F 33.3 °F 35.1 °F 76% 29.76 in 8.0 mi WNW 19.6 mph 31.1 mph 0.05 in Rain Light Rain
4:20 AM 41.0 °F 33.5 °F 35.6 °F 81% 29.77 in 10.0 mi NW 13.8 mph 19.6 mph 0.01 in Rain Light Rain
4:53 AM 39.9 °F 29.7 °F 34.0 °F 79% 29.77 in 7.0 mi NW 23.0 mph 29.9 mph 0.05 in Rain Light Rain
5:40 AM 39.2 °F 29.6 °F 33.8 °F 81% 29.76 in 10.0 mi NW 19.6 mph 29.9 mph 0.02 in Rain Light Rain
5:53 AM 39.9 °F 31.4 °F 34.0 °F 79% 29.78 in 10.0 mi NW 16.1 mph - 0.02 in Rain Light Rain
6:53 AM 39.9 °F 30.2 °F 34.0 °F 79% 29.78 in 7.0 mi NW 20.7 mph 25.3 mph 0.01 in Rain Light Rain
7:46 AM 41.0 °F 33.9 °F 35.6 °F 81% 29.78 in 5.0 mi NW 12.7 mph 20.7 mph 0.01 in Rain Light Rain
7:53 AM 41.0 °F 33.9 °F 34.0 °F 76% 29.80 in 2.5 mi NW 12.7 mph - 0.03 in Rain Rain
8:01 AM 41.0 °F 34.3 °F 35.6 °F 81% 29.78 in 9.0 mi NNW 11.5 mph - 0.00 in Rain Light Rain
8:23 AM 42.8 °F 36.2 °F 35.6 °F 76% 29.79 in 10.0 mi NW 12.7 mph - 0.00 in Rain Light Rain
8:53 AM 44.1 °F 37.7 °F 36.0 °F 73% 29.81 in 10.0 mi WNW 12.7 mph 17.3 mph 0.01 in Rain Light Rain
9:37 AM 46.4 °F 41.9 °F 37.4 °F 71% 29.79 in 10.0 mi WNW 9.2 mph 16.1 mph 0.00 in   Overcast
9:53 AM 46.0 °F 41.9 °F 37.0 °F 71% 29.81 in 10.0 mi WNW 8.1 mph - 0.00 in   Overcast
10:53 AM 44.1 °F 40.1 °F 39.0 °F 82% 29.82 in 2.5 mi South 6.9 mph - 0.02 in Rain Light Rain
10:57 AM 44.6 °F 40.2 °F 39.2 °F 81% 29.80 in 4.0 mi SSE 8.1 mph - 0.00 in Rain Light Rain
10:59 AM 46.4 °F 42.4 °F 41.0 °F 81% 29.80 in 6.0 mi SSE 8.1 mph - 0.00 in Rain Light Rain
11:40 AM 44.6 °F 40.2 °F 39.2 °F 81% 29.82 in 10.0 mi South 8.1 mph - 0.00 in Rain Light Rain
11:53 AM 45.0 °F 39.7 °F 39.0 °F 80% 29.84 in 10.0 mi South 10.4 mph - 0.00 in   Overcast
12:24 PM 48.2 °F - 41.0 °F 76% 29.83 in 10.0 mi South 11.5 mph - N/A   Overcast
12:53 PM 48.9 °F - 39.0 °F 69% 29.85 in 10.0 mi SSE 10.4 mph - N/A   Overcast
1:53 PM 52.0 °F - 39.9 °F 63% 29.86 in 10.0 mi SE 11.5 mph - 0.00 in   Overcast
2:09 PM 53.6 °F - 39.2 °F 58% 29.84 in 10.0 mi SSE 13.8 mph 17.3 mph N/A   Mostly Cloudy
2:38 PM 51.8 °F - 37.4 °F 58% 29.85 in 10.0 mi SE 11.5 mph - N/A   Mostly Cloudy
2:53 PM 48.9 °F - 37.9 °F 66% 29.86 in 10.0 mi SSE 11.5 mph - N/A   Mostly Cloudy
3:35 PM 46.4 °F 41.9 °F 39.2 °F 76% 29.86 in 2.5 mi SE 9.2 mph - 0.02 in Rain Rain
3:42 PM 48.2 °F - 39.2 °F 71% 29.87 in 7.0 mi SE 10.4 mph - 0.02 in Rain Light Rain
3:53 PM 46.9 °F - 39.0 °F 74% 29.89 in 10.0 mi SE 9.2 mph - 0.02 in Rain Light Rain
4:53 PM 44.1 °F 42.5 °F 37.9 °F 79% 29.91 in 2.0 mi SSE 3.5 mph - 0.06 in Rain Heavy Rain
5:03 PM 44.6 °F 41.4 °F 37.4 °F 76% 29.88 in 7.0 mi SSE 5.8 mph - 0.01 in Rain Light Rain
5:53 PM 48.0 °F - 39.9 °F 74% 29.91 in 10.0 mi SSE 4.6 mph - 0.03 in Rain Light Rain
6:45 PM 46.4 °F - 37.4 °F 71% 29.90 in 3.0 mi Calm Calm - 0.02 in Rain Rain
6:53 PM 46.0 °F - 39.0 °F 76% 29.92 in 4.0 mi Calm Calm - 0.03 in Rain Light Rain
7:01 PM 46.4 °F 44.3 °F 39.2 °F 76% 29.90 in 10.0 mi West 4.6 mph - 0.00 in Rain Light Rain
7:53 PM 45.0 °F 43.5 °F 39.0 °F 80% 29.93 in 10.0 mi WSW 3.5 mph - 0.00 in Rain Light Rain
8:53 PM 46.0 °F - 39.0 °F 76% 29.94 in 10.0 mi Calm Calm - 0.01 in   Overcast
9:53 PM 45.0 °F - 39.0 °F 80% 29.95 in 10.0 mi Calm Calm - 0.00 in Rain Light Rain
10:13 PM 44.6 °F - 39.2 °F 81% 29.93 in 10.0 mi Calm Calm - 0.00 in   Overcast
10:53 PM 44.1 °F - 39.9 °F 85% 29.96 in 7.0 mi Calm Calm - 0.00 in Rain Light Rain
11:09 PM 44.6 °F 43.1 °F 39.2 °F 81% 29.93 in 10.0 mi West 3.5 mph - 0.00 in Rain Light Rain
11:53 PM 44.1 °F - 39.9 °F 85% 29.95 in 10.0 mi Calm Calm - 0.00 in   Overcast